Terug naar catalogus

NOAA 16 DEB

ActiefSSO
NORAD 41398·DEBRIS·🇺🇸 United States

Gelanceerd Sep 21, 2000 vanaf Vandenberg Space Force Base

Loading…

Volgende Passages (komende 24 uur)

TLE

VersSource: Space-Track

Epoch: Sep 14, 2026, 14:18 UTC

1 41398U 00055KB  26257.59587369  .00003473  00000-0  11332-2 0  9998
2 41398  98.8298  23.5319 0012525 313.9074  46.1078 14.39258588547113

Volg NOAA 16 DEB in realtime met AllMySat

Download on the App Store